Location: Ferma
(41.9500°N, 44.5167°E)
Time: 12:00:11
(UTC+00:00)

Cosmos 1269 Rocket - Pass Details

Date: 31 May 2022
Orbit: 773 x 778 km, 74.1° (Epoch: 01 July)

Event Time Altitude Azimuth Distance (km) Brightness Sun altitude
Rises 23:01:26 0° 323° (NW) 3,256 7.6 -20.1°
Reaches altitude 10° 23:04:37 10° 303° (WNW) 2,324 6.5 -19.8°
Enters shadow 23:07:29 17° 270° (W) 1,903 5.7 -19.5°
